Location: Alafon
(8.4500°N, 4.2333°E)
Time: 00:12:32
(UTC+00:00)

deb Explorer IX - Pass Details

Date: 28 July 2021
Orbit: 545 x 1092 km, 38.8° (Epoch: 16 September)

Event Time Altitude Azimuth Distance (km) Brightness Sun altitude
Rises 20:49:16 0° 317° (NW) 3,839 ? -37.9°
Reaches altitude 10° 20:52:03 10° 322° (NW) 2,913 ? -38.5°
Enters shadow 20:56:25 37° 342° (NNW) 1,626 ? -39.4°
Maximum altitude 20:59:07 56° 39° (NE) 1,271 - -39.9°
Drops below altitude 10° 21:06:01 10° 116° (ESE) 2,847 - -41.4°
Sets 21:08:42 0° 120° (ESE) 3,747 - -41.9°
